Dewpoint
60 60 61 62 63 63 61 60 59 57 55 52 49 41 37 39 45 59 60 62 65 65 62 62 61 60 58 57 56 56 56 55 55 55 55 54 54 54 54 54 55 55 55
60 60 61 61 62 62 62 61 60 59 57 53 48 39 37 38 42 57 58 59 64 65 64 62 61 60 59 57 57 56 56 55 55 55 54 53 53 53 53 53 53 53 53
61 60 60 61 61 62 62 61 60 59 57 52 45 41 37 36 41 53 57 58 60 62 64 62 61 60 58 58 58 56 56 55 55 54 53 53 52 52 52 52 52 52 52
62 61 60 60 61 60 61 61 60 59 56 52 46 42 38 36 38 47 55 56 57 58 61 63 62 60 59 58 57 57 56 55 54 53 53 52 51 50 50 49 49 49 49
63 62 61 61 62 61 60 60 60 58 55 52 47 43 40 37 37 41 52 54 55 55 55 58 61 61 60 58 57 57 56 55 53 52 52 51 50 50 49 49 48 48 48
62 62 62 62 62 62 62 61 60 57 55 53 49 45 42 39 38 40 44 53 53 53 52 52 53 57 60 59 58 57 56 55 53 51 50 49 49 49 48 48 48 47 48
62 61 61 61 61 62 62 62 61 59 57 53 51 47 40 39 37 38 41 46 51 51 50 49 50 53 55 59 59 57 55 55 54 52 50 49 49 48 48 48 48 48 48
64 63 62 61 60 60 60 60 61 58 56 53 52 44 45 44 38 37 38 40 44 50 49 49 49 51 51 53 54 58 54 54 55 53 50 49 49 48 48 48 48 48 48
63 63 63 62 61 60 60 60 59 58 58 51 50 52 43 42 40 39 35 37 39 43 47 48 47 48 48 49 51 53 55 53 52 51 51 50 49 49 48 47 48 48 48
58 61 61 61 61 60 59 60 59 58 56 58 51 51 50 44 43 44 39 37 37 40 43 48 47 46 46 45 47 50 52 49 48 47 49 50 50 49 48 47 47 47 47
49 54 59 60 60 60 59 58 58 58 59 59 55 50 49 49 44 43 47 44 44 43 44 43 44 45 44 43 44 46 47 45 44 45 46 49 50 48 47 46 46 46 47
50 52 56 58 59 59 59 59 58 57 59 59 56 54 51 49 47 46 44 46 45 45 45 45 45 45 44 42 44 46 47 47 48 51 51 50 46 46 44 48 49 49 49
49 52 54 57 57 58 58 58 59 59 58 57 56 54 52 52 51 49 47 47 45 43 39 39 40 41 41 43 45 47 48 49 49 51 50 51 48 47 47 47 48 47 48
47 52 54 54 54 55 56 56 55 54 54 56 55 53 52 52 51 50 49 47 43 41 39 41 39 40 42 42 44 48 47 49 50 49 48 47 46 46 47 47 48 48 49
51 50 50 50 51 52 53 53 53 53 54 54 54 53 53 51 50 49 49 48 47 42 41 38 36 37 39 42 44 46 45 48 47 47 46 45 45 46 47 46 46 47 47
47 48 48 48 48 48 48 47 47 48 49 48 48 48 46 45 44 44 44 44 44 44 41 39 37 37 39 43 44 42 43 46 46 45 46 45 46 45 44 45 45 46 44
40 43 44 45 44 44 44 43 43 44 46 44 43 43 41 41 41 41 41 41 41 41 39 38 37 37 38 40 41 40 41 41 41 44 45 45 44 44 43 44 44 43 43
37 37 38 39 40 41 40 40 40 40 40 40 40 41 40 40 39 39 39 39 38 39 38 36 34 34 34 37 37 38 39 39 38 39 41 42 42 43 42 41 40 39 38
36 36 37 37 37 37 37 37 37 37 37 37 37 36 36 37 37 37 37 36 36 37 36 36 33 34 34 34 33 33 34 36 38 39 40 41 41 39 38 37 35 34 35
37 37 37 37 36 36 36 35 35 34 34 35 36 35 35 36 35 34 34 34 34 35 35 34 34 33 34 34 34 34 33 35 34 33 32 32 32 32 32 33 33 32 32
37 36 36 37 37 37 36 34 35 35 36 35 35 36 38 38 38 37 35 35 35 34 34 33 32 33 33 32 32 32 31 28 26 26 25 24 24 24 25 28 28 29 30
36 36 35 36 36 37 38 38 36 34 34 34 34 34 35 36 37 38 38 37 36 33 33 32 31 29 26 26 24 25 24 21 20 24 23 23 24 24 24 25 29 30 30
35 36 36 37 37 36 38 37 35 31 28 28 28 28 30 31 31 30 31 32 31 32 33 29 26 25 23 23 22 21 21 20 22 23 24 22 23 22 23 23 28 30 31
34 34 34 35 35 36 36 35 33 26 24 24 25 23 24 25 27 28 26 27 26 23 27 26 25 25 25 25 24 23 23 22 24 24 24 17 21 21 22 23 28 30 31
33 32 32 30 24 25 31 30 26 21 22 21 22 24 23 25 28 30 25 24 24 23 24 27 27 27 27 28 27 25 25 16 18 19 22 21 21 22 23 23 24 29 29
31 26 21 20 28 18 29 28 24 24 19 20 19 21 28 27 28 28 24 22 21 22 22 23 20 20 19 17 21 23 20 9 11 12 19 19 21 21 17 20 22 22 23
Lifted_Index
3 4 3 3 2 2 2 2 3 3 4 5 6 7 7 7 7 5 3 1 1 1 1 1 2 3 4 5 5 5 5 5 6 6 6 7 7 7 7 7 7 7 7
2 2 2 2 2 2 2 2 2 2 3 4 4 5 6 6 6 5 3 2 1 1 1 1 2 3 4 4 5 5 5 6 6 6 7 7 7 8 8 8 7 7 7
1 1 1 1 1 1 1 1 1 1 2 2 2 3 3 4 4 5 4 3 2 1 1 1 2 2 3 4 4 5 5 6 6 6 7 7 8 8 8 8 8 8 8
-0 -0 0 0 1 1 0 0 0 0 0 0 1 1 1 2 2 3 3 3 2 2 1 1 2 2 3 3 4 4 5 5 6 7 7 8 8 9 9 9 9 9 9
-1 -1 -1 -0 -0 -0 -0 -0 -0 -1 -1 -0 -0 -0 0 0 1 1 2 2 2 2 2 2 2 2 2 3 3 4 4 5 6 7 8 8 9 9 9 9 9 10 9
-1 -1 -1 -1 -1 -0 -1 -1 -1 -1 -1 -1 -1 -1 -0 -0 0 0 1 1 1 2 2 3 3 3 3 3 3 4 4 5 6 8 8 9 9 9 9 10 10 10 10
-2 -2 -1 -1 -1 -0 -1 -1 -1 -1 -1 -1 -0 -0 0 0 0 0 0 0 0 1 2 3 4 4 3 3 3 3 4 5 6 7 8 9 9 10 9 9 9 9 9
-2 -1 -1 -1 -0 -0 -0 -1 -1 -0 -0 -0 -0 0 1 1 1 1 0 0 0 0 1 3 4 4 4 4 4 4 5 5 6 7 8 9 9 9 9 9 9 9 9
0 0 -0 -0 -0 -0 -0 -0 -0 -0 -0 -0 -0 0 1 1 1 1 1 1 0 0 1 3 5 5 5 5 5 5 6 6 7 7 8 8 9 9 9 9 9 9 9
4 3 2 1 0 0 -0 0 0 0 0 0 0 0 0 1 1 1 1 1 1 1 1 3 4 5 6 6 6 6 7 8 9 9 9 8 9 9 9 10 9 9 9
8 7 5 3 2 1 0 1 1 1 1 1 1 1 0 1 1 1 2 2 2 2 2 2 3 3 4 6 6 7 8 9 10 10 10 9 9 10 10 10 10 10 10
8 8 6 4 2 1 0 1 1 1 1 1 1 1 1 1 2 2 2 3 3 3 3 2 2 2 3 5 6 7 8 9 10 10 10 10 10 11 11 11 11 11 11
8 7 5 3 2 1 1 1 1 2 2 2 2 2 2 2 2 2 3 3 4 4 3 2 2 2 2 4 5 7 8 9 9 10 11 11 11 12 12 12 12 12 12
8 7 5 4 3 3 2 2 2 3 3 3 3 3 3 3 3 3 4 4 4 4 3 3 2 3 3 3 4 7 8 9 9 10 11 12 12 13 13 13 13 13 13
8 7 6 5 5 4 4 4 4 4 4 4 4 4 4 4 4 4 5 5 5 4 4 3 3 3 3 4 5 7 8 9 10 11 12 12 13 13 14 14 14 14 14
8 8 7 6 6 6 6 6 6 6 6 6 6 6 6 5 5 6 6 6 6 5 4 3 3 3 4 6 7 8 9 10 11 11 12 13 13 14 14 14 15 15 15
9 9 8 7 7 7 8 8 8 8 8 8 8 8 7 7 7 7 7 7 7 6 5 3 3 4 5 7 9 10 11 11 12 12 13 13 13 14 14 15 15 15 15
10 9 9 8 8 8 9 9 9 9 9 9 9 8 8 8 8 8 8 8 8 7 5 4 3 5 7 8 10 11 12 12 13 13 13 14 14 14 15 15 16 16 17
10 10 9 9 9 9 9 9 9 9 9 9 9 9 8 8 8 8 8 8 8 7 6 4 4 6 8 9 10 11 12 12 13 13 14 14 15 16 16 16 17 17 18
10 10 10 9 9 9 9 9 9 9 9 9 9 9 9 9 9 9 8 8 8 8 7 6 6 7 8 9 10 10 11 12 13 14 15 16 17 17 18 18 18 19 19
10 10 9 9 9 10 10 10 9 9 9 9 9 9 9 10 10 10 9 9 9 9 8 7 7 8 9 9 10 10 11 11 13 14 16 17 18 19 19 19 19 19 19
10 10 9 9 10 10 10 10 10 10 9 9 9 10 10 11 11 11 11 11 11 10 9 9 9 9 10 11 12 12 13 13 14 16 17 18 18 19 19 19 19 19 19
10 10 10 10 10 11 11 12 12 11 11 11 11 11 12 13 13 13 13 13 14 13 13 13 12 12 13 15 16 16 16 16 17 18 18 18 18 18 18 18 18 18 17
10 10 11 11 12 13 14 15 15 15 15 15 15 15 15 15 16 16 16 17 17 18 18 18 18 17 18 19 19 19 19 18 18 19 18 17 16 16 16 16 16 16 16
12 12 13 14 16 16 17 18 18 17 17 17 18 19 19 19 19 19 19 19 19 20 21 21 21 21 21 21 21 20 19 18 17 18 17 16 15 15 14 15 15 15 15
14 14 15 17 18 18 19 19 19 18 18 18 19 20 21 21 21 21 20 20 20 20 21 21 22 22 22 21 21 21 19 18 16 16 16 16 14 14 13 13 14 14 14